User: anonymous   Login
Location: Unspecified
(0.0000°N, 0.0000°E)
Time: 16:07:40
(UTC+02:00)
Language:

GP-B - Orbit

View from above orbital plane
View from above orbital plane
View from above satellite
View from above satellite

Ground track
Ground track

The orbit data is extracted from the following two-line orbital elements,

1 28230U 04014A   18171.66636410 +.00000103 +00000-0 +11801-4 0  9993
2 28230 089.8356 114.6883 0002012 081.5145 278.6305 14.78623664220749
Epoch (UTC): 20 June 2018 15:59:33
Eccentricity: 0.0002012
inclination: 89.8356°
perigee height: 632 km
apogee height: 635 km
right ascension of ascending node: 114.6883°
argument of perigee: 81.5145°
revolutions per day: 14.78623664
mean anomaly at epoch: 278.6305°
orbit number at epoch: 22074

The dashed part of the orbit path shows where the satellite is in the earth's shadow,  

DLR